Location: Unspecified
(0.0000°N, 0.0000°E)
Time: 06:35:16
(UTC+00:00)

TIANHUI 5D - Pass Details

Date: 18 August 2024
Orbit: 603 x 606 km, 97.8° (Epoch: 07 September)

Event Time Altitude Azimuth Distance (km) Brightness Sun altitude
Rises 05:18:39 0° 32° (NNE) 2,840 ? -11.0°
Reaches altitude 10° 05:21:05 10° 45° (NE) 1,940 ? -10.4°
Maximum altitude 05:24:37 26° 102° (ESE) 1,193 ? -9.6°
Drops below altitude 10° 05:28:09 10° 159° (SSE) 1,949 ? -8.7°
Sets 05:30:36 0° 171° (S) 2,855 ? -8.1°
